Weather History for North Bend, OR

Change the Weather History Date:

Thursday, July 18, 2013

  Actual Average Record
Temperature  
Mean Temperature 58 °F 59 °F  
Max Temperature 64 °F 65 °F 84 °F (1902)
Min Temperature 53 °F 53 °F 41 °F (1909)
Degree Days  
Heating Degree Days 6 6  
Month to date heating degree days 119  
Since 1 June heating degree days 170 386  
Since 1 July heating degree days 119  
Cooling Degree Days 0 0  
Month to date cooling degree days 0  
Year to date cooling degree days 4 0  
Since 1 June cooling degree days 0 0  
Growing Degree Days 8 (Base 50)    
Moisture  
Dew Point 52 °F    
Average Humidity 76    
Maximum Humidity 93    
Minimum Humidity 63    
Precipitation  
Precipitation 0.00 in 0.01 in 0.42 in (2007)
Month to date precipitation 0.00 0.35  
Year to date precipitation 17.49 36.47  
Sea Level Pressure  
Sea Level Pressure 30.18 in    
Wind  
Wind Speed 12 mph (North)    
Max Wind Speed 29 mph    
Max Gust Speed 39 mph    
Visibility 9 miles    
Events      
T = Trace of Precipitation, MM = Missing Value Source: NWS Daily Summary

Daily Weather History Graph

Daily Weather History Graph

Search for Another Location

Airport:

Trip Planner

Search our weather history database for the weather conditions in past years. The results will help you decide how hot, cold, wet, or windy it might be!

Date:

Astronomy

Jul. 18, 2013 Rise Set
Actual Time 5:53 AM PDT 8:52 PM PDT
Civil Twilight 5:18 AM PDT 9:26 PM PDT
Nautical Twilight 4:35 AM PDT 10:10 PM PDT
Astronomical Twilight 3:43 AM PDT 11:01 PM PDT
Moon 4:55 PM PDT (7/18) 1:49 AM PDT (7/18)
Length of Visible Light 16h 07m
Length of Day
14h 59m
Waxing Gibbous, 78% of the Moon is Illuminated
Jul 18
Waxing Gibbous
Jul 22
Full
Jul 29
Last Quarter
Aug 6
New
Aug 14
First Quarter

Hourly Weather History & Observations

Time (PDT) Temp. Dew Point Humidity Pressure Visibility Wind Dir Wind Speed Gust Speed Precip Events Conditions
12:15 AM - - N/A% 30.20 in 10.0 mi Calm Calm - N/A   Clear
12:35 AM - - N/A% 30.20 in 10.0 mi Calm Calm - N/A   Clear
12:55 AM - - N/A% 30.20 in 10.0 mi Calm Calm - N/A   Clear
1:15 AM - - N/A% 30.20 in 10.0 mi Calm Calm - N/A   Clear
1:35 AM - - N/A% 30.20 in 10.0 mi Calm Calm - N/A   Clear
1:55 AM - - N/A% 30.20 in 10.0 mi WSW 3.5 mph - N/A   Clear
2:15 AM - - N/A% 30.20 in 10.0 mi West 3.5 mph - N/A   Clear
2:35 AM - - N/A% 30.19 in 10.0 mi Calm Calm - N/A   Clear
2:55 AM - - N/A% 30.19 in 10.0 mi Calm Calm - N/A   Clear
3:15 AM - - N/A% 30.19 in 10.0 mi Calm Calm - N/A   Mostly Cloudy
3:35 AM - - N/A% 30.19 in 10.0 mi Calm Calm - N/A   Overcast
3:55 AM - - N/A% 30.19 in 10.0 mi Calm Calm - N/A   Overcast
4:15 AM - - N/A% 30.19 in 10.0 mi Calm Calm - N/A   Partly Cloudy
4:35 AM - - N/A% 30.19 in 9.0 mi Calm Calm - N/A   Scattered Clouds
4:55 AM - - N/A% 30.19 in 10.0 mi Calm Calm - N/A   Overcast
5:15 AM - - N/A% 30.19 in 9.0 mi Calm Calm - N/A   Overcast
5:35 AM - - N/A% 30.19 in 8.0 mi Calm Calm - N/A   Overcast
5:55 AM - - N/A% 30.20 in 3.0 mi Calm Calm - N/A   Overcast
6:15 AM - - N/A% 30.20 in 0.5 mi East 3.5 mph - N/A   Overcast
6:35 AM - - N/A% 30.20 in 0.5 mi SE 3.5 mph - N/A   Overcast
6:55 AM - - N/A% 30.20 in 1.0 mi Calm Calm - N/A   Overcast
7:15 AM - - N/A% 30.21 in 0.5 mi Calm Calm - N/A   Overcast
7:35 AM - - N/A% 30.20 in 0.8 mi Calm Calm - N/A   Overcast
7:55 AM - - N/A% 30.20 in 1.2 mi Calm Calm - N/A   Overcast
8:15 AM - - N/A% 30.20 in 3.0 mi Calm Calm - N/A   Mostly Cloudy
8:35 AM - - N/A% 30.21 in 10.0 mi NNW 4.6 mph - N/A   Partly Cloudy
8:55 AM - - N/A% 30.21 in 10.0 mi North 6.9 mph - N/A   Clear
9:15 AM - - N/A% 30.20 in 10.0 mi North 6.9 mph - N/A   Clear
9:35 AM - - N/A% 30.20 in 10.0 mi North 9.2 mph - N/A   Clear
9:55 AM - - N/A% 30.19 in 10.0 mi North 12.7 mph - N/A   Clear
10:15 AM - - N/A% 30.19 in 10.0 mi North 12.7 mph - N/A   Clear
10:35 AM 62.6 °F 51.8 °F 68% 30.19 in 10.0 mi North 15.0 mph - N/A   Clear
10:55 AM 62.6 °F 53.6 °F 72% 30.19 in 10.0 mi North 15.0 mph - N/A   Clear
11:15 AM 62.6 °F 53.6 °F 72% 30.18 in 10.0 mi North 17.3 mph 21.9 mph N/A   Clear
11:35 AM 62.6 °F 53.6 °F 72% 30.18 in 10.0 mi North 17.3 mph 24.2 mph N/A   Clear
11:55 AM 62.6 °F 53.6 °F 72% 30.18 in 10.0 mi North 18.4 mph 27.6 mph N/A   Clear
12:15 PM 62.6 °F 53.6 °F 72% 30.18 in 10.0 mi North 20.7 mph 28.8 mph N/A   Clear
12:35 PM 62.6 °F 51.8 °F 68% 30.17 in 10.0 mi North 27.6 mph 32.2 mph N/A   Clear
12:55 PM 62.6 °F 51.8 °F 68% 30.17 in 10.0 mi North 27.6 mph 32.2 mph N/A   Clear
1:15 PM 62.6 °F 51.8 °F 68% 30.17 in 10.0 mi North 26.5 mph 33.4 mph N/A   Clear
1:35 PM 62.6 °F 51.8 °F 68% 30.17 in 10.0 mi North 26.5 mph 34.5 mph N/A   Clear
1:55 PM 62.6 °F 51.8 °F 68% 30.17 in 10.0 mi North 25.3 mph 34.5 mph N/A   Clear
2:15 PM 62.6 °F 51.8 °F 68% 30.17 in 10.0 mi North 25.3 mph 35.7 mph N/A   Clear
2:35 PM 62.6 °F 51.8 °F 68% 30.16 in 10.0 mi North 24.2 mph 34.5 mph N/A   Clear
2:55 PM 62.6 °F 51.8 °F 68% 30.16 in 10.0 mi North 27.6 mph 39.1 mph N/A   Clear
3:15 PM 64.4 °F 51.8 °F 64% 30.16 in 10.0 mi North 25.3 mph 35.7 mph N/A   Clear
3:35 PM 64.4 °F 51.8 °F 64% 30.16 in 10.0 mi North 27.6 mph 36.8 mph N/A   Clear
3:55 PM 64.4 °F 51.8 °F 64% 30.16 in 10.0 mi North 25.3 mph 34.5 mph N/A   Clear
4:15 PM 64.4 °F 51.8 °F 64% 30.15 in 10.0 mi North 25.3 mph 36.8 mph N/A   Clear
4:35 PM 64.4 °F 51.8 °F 64% 30.16 in 10.0 mi North 21.9 mph 35.7 mph N/A   Clear
4:55 PM 64.4 °F 51.8 °F 64% 30.15 in 10.0 mi North 28.8 mph 35.7 mph N/A   Clear
5:15 PM 62.6 °F 51.8 °F 68% 30.15 in 10.0 mi North 23.0 mph 38.0 mph N/A   Clear
5:35 PM 62.6 °F 51.8 °F 68% 30.15 in 10.0 mi North 21.9 mph 29.9 mph N/A   Clear
5:55 PM 62.6 °F 51.8 °F 68% 30.15 in 10.0 mi North 23.0 mph 31.1 mph N/A   Clear
6:15 PM 62.6 °F 51.8 °F 68% 30.16 in 10.0 mi North 19.6 mph 29.9 mph N/A   Clear
6:35 PM 60.8 °F 53.6 °F 77% 30.16 in 10.0 mi North 18.4 mph 28.8 mph N/A   Clear
6:55 PM 60.8 °F 53.6 °F 77% 30.16 in 10.0 mi North 19.6 mph 25.3 mph N/A   Clear
7:15 PM 60.8 °F 53.6 °F 77% 30.16 in 10.0 mi North 15.0 mph 25.3 mph N/A   Clear
7:35 PM 59.0 °F 53.6 °F 82% 30.17 in 10.0 mi North 12.7 mph 21.9 mph N/A   Partly Cloudy
7:55 PM 59.0 °F 53.6 °F 82% 30.17 in 10.0 mi North 13.8 mph 20.7 mph N/A   Partly Cloudy
8:15 PM 57.2 °F 53.6 °F 88% 30.17 in 10.0 mi North 15.0 mph 24.2 mph N/A   Scattered Clouds
8:35 PM 57.2 °F 53.6 °F 88% 30.17 in 10.0 mi North 11.5 mph 23.0 mph N/A   Scattered Clouds
8:55 PM 55.4 °F 53.6 °F 94% 30.18 in 10.0 mi North 9.2 mph 16.1 mph N/A   Scattered Clouds
9:15 PM 55.4 °F 51.8 °F 88% 30.18 in 10.0 mi North 6.9 mph - N/A   Scattered Clouds
9:35 PM 55.4 °F 51.8 °F 88% 30.18 in 10.0 mi North 8.1 mph - N/A   Mostly Cloudy
9:55 PM 55.4 °F 51.8 °F 88% 30.18 in 10.0 mi NNW 6.9 mph - N/A   Mostly Cloudy
10:15 PM 55.4 °F 51.8 °F 88% 30.19 in 10.0 mi NNW 5.8 mph - N/A   Overcast
10:35 PM 53.6 °F 51.8 °F 94% 30.18 in 10.0 mi NNW 6.9 mph - N/A   Overcast
10:55 PM 55.4 °F 51.8 °F 88% 30.18 in 10.0 mi North 8.1 mph - N/A   Overcast
11:15 PM 55.4 °F 51.8 °F 88% 30.18 in 10.0 mi NNW 10.4 mph - N/A   Overcast
11:35 PM 55.4 °F 53.6 °F 94% 30.18 in 10.0 mi North 10.4 mph 16.1 mph N/A   Overcast
11:55 PM 55.4 °F 53.6 °F 94% 30.18 in 10.0 mi North 15.0 mph 19.6 mph N/A   Overcast